| time (UTC) | temp F | wind direction | speed knots | gust knots | rain 1hr in | rain 24hr in | rain mn in | humidity % | barometer mb |
| 20260509131015 | 61 | 252 | 0.0 | 5.2 | 0.00 | 0.00 | 0.00 | 72 | 1011.6 |
| 20260509130050 | 61 | 165 | 0.0 | 3.5 | 0.00 | 0.00 | 0.00 | 72 | 1011.5 |
| 20260509125041 | 61 | 145 | 0.9 | 7.0 | 0.00 | 0.00 | 0.00 | 72 | 1011.5 |
| 20260509124013 | 61 | 142 | 0.0 | 4.3 | 0.00 | 0.00 | 0.00 | 72 | 1011.5 |
| 20260509123044 | 60 | 200 | 0.9 | 5.2 | 0.00 | 0.00 | 0.00 | 73 | 1011.5 |
| 20260509122017 | 60 | 119 | 0.0 | 2.6 | 0.00 | 0.00 | 0.00 | 73 | 1011.4 |
| 20260509121031 | 60 | 113 | 0.9 | 4.3 | 0.00 | 0.00 | 0.00 | 72 | 1011.4 |
| 20260509120039 | 60 | 100 | 0.9 | 5.2 | 0.00 | 0.00 | 0.00 | 72 | 1011.5 |
| 20260509115101 | 60 | 182 | 0.9 | 7.8 | 0.00 | 0.00 | 0.00 | 72 | 1011.5 |
| 20260509114025 | 59 | 159 | 0.9 | 5.2 | 0.00 | 0.00 | 0.00 | 72 | 1011.4 |
| 20260509113020 | 59 | 113 | 0.9 | 6.1 | 0.00 | 0.00 | 0.00 | 72 | 1011.4 |
| 20260509112053 | 59 | 186 | 0.9 | 6.1 | 0.00 | 0.00 | 0.00 | 72 | 1011.4 |
| 20260509111026 | 59 | 221 | 0.0 | 2.6 | 0.00 | 0.00 | 0.00 | 71 | 1011.4 |
| 20260509110042 | 59 | 234 | 0.0 | 4.3 | 0.00 | 0.00 | 0.00 | 71 | 1011.4 |
| 20260509105025 | 59 | 157 | 0.0 | 2.6 | 0.00 | 0.00 | 0.00 | 69 | 1011.3 |
| 20260509104020 | 59 | 154 | 0.0 | 0.0 | 0.00 | 0.00 | 0.00 | 67 | 1011.2 |
| 20260509103054 | 59 | 154 | 0.0 | 0.9 | 0.00 | 0.00 | 0.00 | 67 | 1011.4 |
| 20260509102026 | 59 | 153 | 0.0 | 0.0 | 0.00 | 0.00 | 0.00 | 67 | 1011.3 |
| 20260509101022 | 59 | 153 | 0.0 | 1.7 | 0.00 | 0.00 | 0.00 | 66 | 1011.0 |
| 20260509100057 | 59 | 170 | 0.9 | 3.5 | 0.00 | 0.00 | 0.00 | 67 | 1011.1 |
| 20260509095019 | 59 | 165 | 0.0 | 0.0 | 0.00 | 0.00 | 0.00 | 66 | 1011.2 |
| 20260509094026 | 59 | 165 | 0.0 | 2.6 | 0.00 | 0.00 | 0.00 | 66 | 1011.2 |
| 20260509093020 | 59 | 165 | 0.0 | 4.3 | 0.00 | 0.00 | 0.00 | 66 | 1011.3 |
| 20260509092033 | 59 | 165 | 0.0 | 4.3 | 0.00 | 0.00 | 0.00 | 66 | 1011.2 |
| 20260509091027 | 59 | 186 | 0.0 | 4.3 | 0.00 | 0.00 | 0.00 | 67 | 1011.1 |
| 20260509090015 | 59 | 185 | 0.0 | 2.6 | 0.00 | 0.00 | 0.00 | 66 | 1011.2 |
| 20260509085029 | 59 | 185 | 0.0 | 2.6 | 0.00 | 0.00 | 0.00 | 66 | 1011.3 |
| 20260509084022 | 59 | 186 | 0.9 | 3.5 | 0.00 | 0.00 | 0.00 | 66 | 1011.5 |
| 20260509083036 | 59 | 197 | 0.9 | 5.2 | 0.00 | 0.00 | 0.00 | 66 | 1011.6 |
| 20260509082020 | 59 | 187 | 0.0 | 3.5 | 0.00 | 0.00 | 0.00 | 66 | 1011.8 |
| 20260509081013 | 59 | 186 | 0.9 | 2.6 | 0.00 | 0.00 | 0.00 | 66 | 1011.9 |
| 20260509080020 | 59 | 186 | 0.0 | 4.3 | 0.00 | 0.00 | 0.00 | 66 | 1011.8 |
| 20260509075014 | 58 | 182 | 0.9 | 4.3 | 0.00 | 0.00 | 0.00 | 67 | 1011.8 |
| 20260509074027 | 58 | 178 | 0.0 | 2.6 | 0.00 | 0.00 | 0.00 | 67 | 1011.8 |
| 20260509073022 | 58 | 185 | 0.9 | 4.3 | 0.00 | 0.00 | 0.00 | 68 | 1011.7 |
| 20260509072017 | 58 | 183 | 0.0 | 2.6 | 0.00 | 0.00 | 0.00 | 68 | 1011.8 |
| 20260509071030 | 58 | 184 | 0.0 | 0.9 | 0.00 | 0.00 | 0.00 | 69 | 1011.8 |
| 20260509070017 | 57 | 184 | 0.0 | 3.5 | 0.00 | 0.00 | 0.00 | 69 | 1012.0 |
| 20260509065052 | 57 | 183 | 0.0 | 2.6 | 0.00 | 0.00 | 0.00 | 70 | 1012.0 |
| 20260509064024 | 57 | 182 | 0.0 | 2.6 | 0.00 | 0.00 | 0.00 | 70 | 1011.9 |
| 20260509063018 | 57 | 182 | 0.0 | 0.0 | 0.00 | 0.00 | 0.00 | 70 | 1012.2 |
| 20260509062031 | 57 | 182 | 0.0 | 0.0 | 0.00 | 0.00 | 0.00 | 70 | 1012.2 |
| 20260509061016 | 57 | 182 | 0.0 | 0.0 | 0.00 | 0.00 | 0.00 | 69 | 1012.3 |
| 20260509060033 | 58 | 182 | 0.0 | 0.9 | 0.00 | 0.00 | 0.00 | 69 | 1012.4 |
| 20260509055019 | 58 | 182 | 0.0 | 2.6 | 0.00 | 0.00 | 0.00 | 69 | 1012.5 |
| 20260509054043 | 58 | 182 | 0.0 | 1.7 | 0.00 | 0.00 | 0.00 | 69 | 1012.5 |
| 20260509053034 | 58 | 181 | 0.0 | 3.5 | 0.00 | 0.00 | 0.00 | 68 | 1012.5 |
| 20260509052020 | 58 | 180 | 0.0 | 1.7 | 0.00 | 0.00 | 0.00 | 67 | 1012.3 |
| 20260509051014 | 58 | 181 | 0.0 | 2.6 | 0.00 | 0.00 | 0.00 | 67 | 1012.3 |
| 20260509050017 | 58 | 182 | 0.0 | 0.9 | 0.00 | 0.00 | 0.00 | 67 | 1012.3 |
| 20260509045031 | 59 | 181 | 0.0 | 3.5 | 0.00 | 0.00 | 0.00 | 67 | 1012.4 |
| 20260509044027 | 59 | 182 | 0.0 | 5.2 | 0.00 | 0.00 | 0.00 | 67 | 1012.5 |
| 20260509043020 | 59 | 155 | 0.9 | 4.3 | 0.00 | 0.00 | 0.00 | 68 | 1012.5 |
| 20260509042014 | 58 | 145 | 0.0 | 4.3 | 0.00 | 0.00 | 0.00 | 69 | 1012.4 |
| 20260509041048 | 58 | 137 | 0.0 | 3.5 | 0.00 | 0.00 | 0.00 | 70 | 1012.3 |
| 20260509040014 | 58 | 148 | 0.9 | 3.5 | 0.00 | 0.00 | 0.00 | 72 | 1012.4 |
| 20260509035027 | 59 | 128 | 0.0 | 0.0 | 0.00 | 0.00 | 0.00 | 73 | 1012.5 |
| 20260509034021 | 59 | 128 | 0.0 | 1.7 | 0.00 | 0.00 | 0.00 | 74 | 1012.5 |
| 20260509033016 | 59 | 125 | 0.0 | 1.7 | 0.00 | 0.00 | 0.00 | 75 | 1012.7 |
| 20260509032050 | 59 | 119 | 0.0 | 0.9 | 0.00 | 0.00 | 0.00 | 75 | 1012.7 |
| 20260509031025 | 59 | 119 | 0.0 | 2.6 | 0.00 | 0.00 | 0.00 | 75 | 1012.7 |
| 20260509030032 | 60 | 136 | 0.0 | 0.0 | 0.00 | 0.00 | 0.00 | 75 | 1012.7 |
| 20260509025027 | 60 | 136 | 0.0 | 0.9 | 0.00 | 0.00 | 0.00 | 75 | 1012.8 |
| 20260509024041 | 60 | 136 | 0.0 | 0.0 | 0.00 | 0.00 | 0.00 | 75 | 1012.7 |
| 20260509023024 | 60 | 136 | 0.0 | 1.7 | 0.00 | 0.00 | 0.00 | 75 | 1012.8 |
| 20260509022018 | 61 | 136 | 0.0 | 0.0 | 0.00 | 0.00 | 0.00 | 74 | 1012.6 |
| 20260509021013 | 61 | 136 | 0.0 | 0.9 | 0.00 | 0.00 | 0.00 | 73 | 1012.7 |
| 20260509020020 | 62 | 134 | 0.0 | 0.9 | 0.00 | 0.00 | 0.00 | 71 | 1012.6 |
| 20260509015034 | 62 | 134 | 0.0 | 2.6 | 0.00 | 0.00 | 0.00 | 69 | 1012.6 |
| 20260509014027 | 62 | 155 | 0.0 | 0.9 | 0.00 | 0.00 | 0.00 | 68 | 1012.6 |
| 20260509013021 | 62 | 153 | 0.0 | 0.9 | 0.00 | 0.00 | 0.00 | 67 | 1012.7 |
| 20260509012015 | 62 | 154 | 0.0 | 0.0 | 0.00 | 0.00 | 0.00 | 67 | 1012.6 |
| 20260509011030 | 62 | 154 | 0.0 | 0.9 | 0.00 | 0.00 | 0.00 | 66 | 1012.4 |
| 20260509010015 | 62 | 154 | 0.0 | 0.0 | 0.00 | 0.00 | 0.00 | 65 | 1012.4 |
| 20260509005045 | 63 | 154 | 0.0 | 1.7 | 0.00 | 0.00 | 0.00 | 65 | 1012.4 |
| 20260509004019 | 63 | 155 | 0.0 | 2.6 | 0.00 | 0.00 | 0.00 | 64 | 1012.4 |
| 20260509003014 | 63 | 124 | 0.0 | 0.9 | 0.00 | 0.00 | 0.00 | 63 | 1012.2 |
| 20260509002028 | 63 | 126 | 0.0 | 0.9 | 0.00 | 0.00 | 0.00 | 62 | 1012.2 |
| 20260509001042 | 63 | 112 | 0.0 | 0.9 | 0.00 | 0.00 | 0.00 | 61 | 1012.0 |
| 20260509000031 | 64 | 115 | 0.0 | 2.6 | 0.00 | 0.00 | 0.00 | 60 | 1012.0 |
| 20260508235025 | 64 | 171 | 0.0 | 4.3 | 0.00 | 0.00 | 0.00 | 59 | 1011.8 |
| 20260508234040 | 65 | 140 | 0.0 | 2.6 | 0.00 | 0.00 | 0.00 | 57 | 1011.8 |
| 20260508233025 | 66 | 118 | 0.0 | 6.1 | 0.00 | 0.00 | 0.00 | 54 | 1011.8 |
| 20260508232019 | 68 | 269 | 0.0 | 1.7 | 0.00 | 0.00 | 0.00 | 53 | 1011.7 |
| 20260508231014 | 69 | 269 | 0.0 | 0.9 | 0.00 | 0.00 | 0.00 | 48 | 1011.5 |
| 20260508230023 | 69 | 269 | 0.0 | 0.0 | 0.00 | 0.00 | 0.00 | 40 | 1011.3 |
| 20260508225016 | 69 | 269 | 0.0 | 0.0 | 0.00 | 0.00 | 0.00 | 39 | 1011.3 |
| 20260508224049 | 69 | 269 | 0.0 | 1.7 | 0.00 | 0.00 | 0.00 | 39 | 1011.4 |
| 20260508223023 | 69 | 270 | 0.0 | 0.9 | 0.00 | 0.00 | 0.00 | 38 | 1011.5 |
| 20260508222018 | 70 | 270 | 0.0 | 1.7 | 0.00 | 0.00 | 0.00 | 38 | 1011.4 |
| 20260508221031 | 70 | 270 | 0.0 | 6.1 | 0.00 | 0.00 | 0.00 | 37 | 1011.4 |
| 20260508220018 | 70 | 261 | 0.9 | 5.2 | 0.00 | 0.00 | 0.00 | 35 | 1011.5 |
| 20260508215033 | 70 | 265 | 0.0 | 3.5 | 0.00 | 0.00 | 0.00 | 36 | 1011.4 |
| 20260508214016 | 70 | 261 | 0.0 | 3.5 | 0.00 | 0.00 | 0.00 | 37 | 1011.4 |
| 20260508213039 | 71 | 263 | 0.0 | 7.8 | 0.00 | 0.00 | 0.00 | 35 | 1011.4 |
| 20260508212054 | 71 | 182 | 0.0 | 5.2 | 0.00 | 0.00 | 0.00 | 35 | 1011.4 |
| 20260508211017 | 73 | 280 | 0.9 | 6.1 | 0.00 | 0.00 | 0.00 | 33 | 1011.3 |
| 20260508210034 | 71 | 234 | 0.9 | 4.3 | 0.00 | 0.00 | 0.00 | 32 | 1011.3 |
| 20260508205043 | 72 | 278 | 1.7 | 11.3 | 0.00 | 0.00 | 0.00 | 31 | 1011.3 |
| 20260508204015 | 73 | 240 | 3.5 | 9.6 | 0.00 | 0.00 | 0.00 | 31 | 1011.3 |
| 20260508203027 | 70 | 261 | 1.7 | 11.3 | 0.00 | 0.00 | 0.00 | 32 | 1011.7 |
| 20260508202021 | 71 | 244 | 1.7 | 7.0 | 0.00 | 0.00 | 0.00 | 33 | 1011.6 |
| 20260508201035 | 71 | 267 | 0.9 | 5.2 | 0.00 | 0.00 | 0.00 | 35 | 1011.6 |
| 20260508200022 | 71 | 261 | 2.6 | 7.0 | 0.00 | 0.00 | 0.00 | 33 | 1011.7 |
| 20260508195036 | 73 | 268 | 0.9 | 10.4 | 0.00 | 0.00 | 0.00 | 33 | 1011.9 |
| 20260508194029 | 74 | 267 | 3.5 | 9.6 | 0.00 | 0.00 | 0.00 | 31 | 1012.1 |
| 20260508193043 | 74 | 266 | 1.7 | 6.1 | 0.00 | 0.00 | 0.00 | 33 | 1012.2 |
| 20260508192035 | 72 | 248 | 0.9 | 7.8 | 0.00 | 0.00 | 0.00 | 32 | 1012.4 |
| 20260508191028 | 73 | 257 | 3.5 | 12.2 | 0.00 | 0.00 | 0.00 | 31 | 1012.5 |
| 20260508190014 | 73 | 262 | 5.2 | 13.0 | 0.00 | 0.00 | 0.00 | 31 | 1012.5 |
| 20260508185028 | 73 | 254 | 2.6 | 7.0 | 0.00 | 0.00 | 0.00 | 35 | 1012.6 |
| 20260508184021 | 73 | 158 | 0.9 | 8.7 | 0.00 | 0.00 | 0.00 | 34 | 1012.7 |
| 20260508183035 | 72 | 240 | 3.5 | 9.6 | 0.00 | 0.00 | 0.00 | 32 | 1012.9 |
| 20260508182029 | 73 | 269 | 5.2 | 13.9 | 0.00 | 0.00 | 0.00 | 32 | 1013.0 |
| 20260508181023 | 72 | 247 | 2.6 | 12.2 | 0.00 | 0.00 | 0.00 | 35 | 1013.0 |
| 20260508180030 | 72 | 238 | 2.6 | 7.0 | 0.00 | 0.00 | 0.00 | 36 | 1013.1 |
| 20260508175025 | 72 | 309 | 2.6 | 10.4 | 0.00 | 0.00 | 0.00 | 33 | 1013.2 |
| 20260508174036 | 72 | 285 | 0.0 | 7.0 | 0.00 | 0.00 | 0.00 | 35 | 1013.3 |
| 20260508173049 | 72 | 219 | 2.6 | 8.7 | 0.00 | 0.00 | 0.00 | 36 | 1013.5 |
| 20260508172041 | 70 | 321 | 4.3 | 13.0 | 0.00 | 0.00 | 0.00 | 34 | 1013.4 |
| 20260508171033 | 71 | 234 | 4.3 | 12.2 | 0.00 | 0.00 | 0.00 | 35 | 1013.6 |
| 20260508170039 | 71 | 219 | 1.7 | 9.6 | 0.00 | 0.00 | 0.00 | 37 | 1013.7 |
| 20260508165031 | 70 | 242 | 3.5 | 10.4 | 0.00 | 0.00 | 0.00 | 36 | 1013.9 |
| 20260508164017 | 70 | 250 | 3.5 | 9.6 | 0.00 | 0.00 | 0.00 | 39 | 1013.8 |
| 20260508163031 | 69 | 252 | 0.9 | 6.1 | 0.00 | 0.00 | 0.00 | 39 | 1013.7 |
| 20260508162025 | 69 | 248 | 0.9 | 7.8 | 0.00 | 0.00 | 0.00 | 41 | 1014.0 |
| 20260508161038 | 68 | 331 | 3.5 | 8.7 | 0.00 | 0.00 | 0.00 | 40 | 1014.2 |
| 20260508160023 | 68 | 257 | 3.5 | 8.7 | 0.00 | 0.00 | 0.00 | 38 | 1014.3 |
| 20260508155016 | 68 | 343 | 3.5 | 12.2 | 0.00 | 0.00 | 0.00 | 40 | 1014.4 |
| 20260508154029 | 67 | 246 | 4.3 | 11.3 | 0.00 | 0.00 | 0.00 | 40 | 1014.7 |
| 20260508153023 | 68 | 275 | 3.5 | 9.6 | 0.00 | 0.00 | 0.00 | 42 | 1014.7 |
| 20260508152017 | 67 | 242 | 4.3 | 9.6 | 0.00 | 0.00 | 0.00 | 39 | 1014.9 |
| 20260508151030 | 67 | 229 | 1.7 | 9.6 | 0.00 | 0.00 | 0.00 | 40 | 1014.9 |
| 20260508150016 | 66 | 261 | 1.7 | 8.7 | 0.00 | 0.00 | 0.00 | 41 | 1014.9 |
| 20260508145031 | 65 | 279 | 1.7 | 8.7 | 0.00 | 0.00 | 0.00 | 39 | 1015.0 |
| 20260508144015 | 65 | 273 | 1.7 | 7.8 | 0.00 | 0.00 | 0.00 | 38 | 1015.1 |
| 20260508143038 | 64 | 241 | 0.9 | 7.8 | 0.00 | 0.00 | 0.00 | 43 | 1015.1 |
| 20260508142022 | 62 | 261 | 2.6 | 7.0 | 0.00 | 0.00 | 0.00 | 43 | 1015.2 |
| 20260508141016 | 60 | 261 | 1.7 | 6.1 | 0.00 | 0.00 | 0.00 | 46 | 1015.3 |
| 20260508140026 | 59 | 242 | 0.0 | 4.3 | 0.00 | 0.00 | 0.00 | 49 | 1015.2 |
| 20260508135020 | 58 | 251 | 0.9 | 4.3 | 0.00 | 0.00 | 0.00 | 48 | 1015.4 |
| 20260508134014 | 57 | 258 | 0.9 | 5.2 | 0.00 | 0.00 | 0.00 | 50 | 1015.5 |
| 20260508133028 | 56 | 252 | 0.9 | 3.5 | 0.00 | 0.00 | 0.00 | 53 | 1015.6 |
| 20260508132037 | 56 | 246 | 2.6 | 6.1 | 0.00 | 0.00 | 0.00 | 54 | 1015.8 |